Location: Santa Giusta
(39.8800°N, 8.6069°E)
Time: 17:41:55
(UTC+00:00)

Cosmos 1709 Rocket - Pass Details

Date: 02 February 2023
Orbit: 948 x 1001 km, 82.9° (Epoch: 31 March)

Event Time Altitude Azimuth Distance (km) Brightness Sun altitude
Rises 19:09:16 0° 354° (N) 3,651 7.1 -27.8°
Reaches altitude 10° 19:11:48 10° 355° (N) 2,695 6.4 -28.2°
Enters shadow 19:16:21 52° 7° (N) 1,178 4.3 -29.1°
